SCP
0 0 0 1 1 0 0 0 1 1 2 1 1 1 1 1 1 1 1 1 1 1 2 3 3 2 2 3 3 3 3 4 4 4 4 3 3 3 3 4 4 4 4 4
0 1 1 1 1 1 1 1 1 2 2 1 1 1 1 1 1 1 1 1 1 1 2 2 2 2 2 2 3 3 3 4 5 5 4 4 3 3 4 4 4 4 3 3
1 1 1 1 1 1 1 2 2 2 2 1 2 2 2 2 2 2 2 1 1 1 1 2 2 2 2 2 3 3 4 4 5 6 5 4 4 3 3 4 4 3 2 2
1 1 1 1 1 1 2 2 2 2 2 2 2 3 2 2 1 2 1 1 1 1 1 1 1 2 2 2 3 3 4 4 4 4 5 4 4 4 3 3 3 2 2 2
1 1 1 1 1 1 2 2 2 2 2 3 3 3 2 2 1 1 1 1 1 1 1 1 1 2 2 3 3 3 4 4 3 3 3 4 4 5 4 3 2 2 2 2
1 1 1 1 1 1 1 1 2 2 3 3 3 3 2 2 1 1 1 1 1 1 1 1 1 2 2 2 2 3 3 3 3 2 2 3 5 6 4 2 2 2 2 1
0 0 0 1 1 1 1 1 2 3 3 2 2 3 2 2 1 1 1 1 1 1 1 1 1 2 2 2 2 2 2 3 3 2 3 3 5 5 3 1 1 1 1 1
0 0 0 1 1 1 1 1 2 3 3 3 3 3 3 2 1 1 1 1 1 1 1 1 1 1 1 1 1 1 1 2 2 3 3 3 4 3 2 1 1 1 1 1
0 0 0 0 0 1 1 1 2 3 3 3 2 3 3 2 2 2 1 1 0 0 0 0 0 1 1 1 1 1 1 1 1 2 2 2 2 2 1 1 1 1 1 1
0 0 0 0 0 1 1 1 2 3 3 2 2 2 2 1 1 1 1 0 0 0 0 0 0 0 0 1 1 1 1 1 1 1 1 1 1 0 0 0 0 0 1 1
0 0 0 0 0 0 1 1 2 2 2 1 1 1 1 0 0 0 0 0 0 0 0 0 0 0 0 0 0 1 1 1 1 0 0 0 0 0 0 0 0 0 0 0
0 0 0 0 0 0 1 1 1 1 1 1 1 0 0 0 0 0 0 0 0 0 0 0 0 0 0 0 0 0 0 0 0 0 0 0 0 0 0 0 0 0 0 0
0 0 0 0 0 0 0 0 1 1 0 0 0 0 0 0 0 0 0 0 0 0 0 0 0 0 0 0 0 0 0 0 0 0 0 0 0 0 0 0 0 0 0 0
0 0 0 0 0 0 0 0 0 0 0 0 0 0 0 0 0 0 0 0 0 0 0 0 0 0 0 0 0 0 0 0 0 0 0 0 0 0 0 0 0 0 0 0
0 0 0 0 0 0 0 0 0 0 0 0 0 0 0 0 0 0 0 0 0 0 0 0 0 0 0 0 0 0 0 0 0 0 0 0 0 0 0 0 0 0 0 0
0 0 0 0 0 0 0 0 0 0 0 0 0 0 0 0 0 0 0 0 0 0 0 0 0 0 0 0 0 0 0 0 0 0 0 0 0 0 0 0 0 0 0 0
0 0 0 0 0 0 0 0 0 0 0 0 0 0 0 0 0 0 0 0 0 0 0 0 0 0 0 0 0 0 0 0 0 0 0 0 0 0 0 0 0 0 0 0
0 0 0 0 0 0 0 0 0 0 0 0 0 0 0 0 0 0 0 0 0 0 0 0 0 0 0 0 0 0 0 0 0 0 0 0 0 0 0 0 0 0 0 0
0 0 0 0 0 0 0 0 0 0 0 0 0 0 0 0 0 0 0 0 0 0 0 0 0 0 0 0 0 0 0 0 0 0 0 0 0 0 0 0 0 0 0 0
0 0 0 0 0 0 0 0 0 0 0 0 0 0 0 0 0 0 0 0 0 0 0 0 0 0 0 0 0 0 0 0 0 0 0 0 0 0 0 0 0 0 0 0
0 0 0 0 0 0 0 0 0 0 0 0 0 0 0 0 0 0 0 0 0 0 0 0 0 0 0 0 0 0 0 0 0 0 0 0 0 0 0 0 0 0 0 0
0 0 0 0 0 0 0 0 0 0 0 0 0 0 0 0 0 0 0 0 0 0 0 0 0 0 0 0 0 0 0 0 0 0 0 0 0 0 0 0 0 0 0 0
0 0 0 0 0 0 0 0 0 0 0 0 0 0 0 0 0 0 0 0 0 0 0 0 0 0 0 0 0 0 0 0 0 0 0 0 0 0 0 0 0 0 0 0
0 0 0 0 0 0 0 0 0 0 0 0 0 0 0 0 0 0 0 0 0 0 0 0 0 0 0 0 0 0 0 0 0 0 0 0 0 0 0 0 0 0 0 0
0 0 0 0 0 0 0 0 0 0 0 0 0 0 0 0 0 0 0 0 0 0 0 0 0 0 0 0 0 0 0 0 0 0 0 0 0 0 0 0 0 0 0 0
0 0 0 0 0 0 0 0 0 0 0 0 0 0 0 0 0 0 0 0 0 0 0 0 0 0 0 0 0 0 0 0 0 0 0 0 0 0 0 0 0 0 0 0
0 0 0 0 0 0 0 0 0 0 0 0 0 0 0 0 0 0 0 0 0 0 0 0 0 0 0 0 0 0 0 0 0 0 0 0 0 0 0 0 0 0 0 0
Wind_Speed
5 6 4 3 5 5 4 7 7 6 7 7 5 4 4 4 4 4 4 4 6 7 8 8 8 7 8 8 9 10 10 10 10 9 7 7 6 7 7 7 8 8 7 7
3 3 2 3 5 5 5 4 5 5 3 1 2 3 4 4 5 4 3 3 4 5 6 7 9 9 8 8 8 8 9 10 8 7 7 6 6 6 6 7 7 7 8 7
3 4 3 4 3 3 3 3 7 7 6 6 5 5 5 5 6 5 3 3 3 3 4 5 6 7 8 7 7 7 7 6 6 6 7 8 8 7 8 8 7 7 7 7
2 1 4 6 2 1 3 1 2 5 8 9 9 7 7 5 7 6 6 5 4 3 3 2 3 4 5 5 5 5 4 3 3 4 5 5 5 6 6 5 6 6 7 7
2 3 4 3 1 1 4 1 2 8 11 12 12 12 9 7 7 8 8 7 5 4 5 5 5 5 6 6 5 4 3 2 2 3 3 3 3 4 4 4 5 6 6 7
3 3 5 4 2 1 5 2 1 8 12 11 7 7 4 4 8 9 9 8 8 8 9 9 6 6 9 7 6 5 3 2 2 3 3 3 3 3 2 3 4 4 4 4
3 3 4 4 3 1 4 5 4 7 9 8 6 7 8 8 9 8 10 10 9 10 10 8 7 8 10 8 6 3 3 3 4 3 2 2 2 2 2 2 2 2 2 2
3 3 5 3 1 2 4 5 7 8 9 12 14 14 12 11 10 9 10 10 9 10 10 8 7 9 9 7 4 4 5 5 5 4 3 2 2 1 1 2 2 2 1 1
2 3 1 2 1 1 5 9 8 9 12 15 16 14 12 11 10 9 9 9 8 9 10 9 8 8 8 5 4 5 6 5 4 4 4 3 3 2 1 1 1 1 1 1
0 1 2 3 3 5 8 11 10 12 13 15 16 14 12 10 9 8 9 8 7 9 10 8 8 8 7 5 5 6 6 4 4 4 4 4 3 2 2 1 1 1 1 1
1 1 4 5 5 9 12 12 13 14 13 15 16 14 11 10 9 8 8 6 7 8 8 7 6 7 7 6 6 7 6 5 4 3 3 3 3 2 1 0 1 2 2 2
2 2 4 3 6 11 14 13 15 17 15 12 13 13 11 9 7 7 7 6 7 7 7 6 6 6 6 6 6 7 6 5 4 3 3 2 2 3 4 1 1 1 2 2
3 5 7 6 8 10 14 13 14 15 15 13 10 10 10 8 6 6 6 6 6 6 5 5 6 6 5 5 6 6 4 4 3 3 2 2 2 2 2 4 4 2 2 3
6 8 9 8 10 12 15 15 15 14 13 11 10 9 9 8 6 6 5 4 5 5 5 5 5 5 4 4 5 5 4 4 4 2 2 2 2 2 1 1 2 3 3 4
9 9 10 11 12 12 13 14 14 12 11 10 9 8 8 7 6 5 4 4 5 6 5 5 5 4 4 4 5 4 4 3 3 3 3 2 2 2 2 2 2 2 3 4
12 12 13 14 14 12 12 13 12 10 9 9 8 7 6 6 6 5 5 5 5 4 3 4 4 3 4 4 4 3 3 6 4 2 3 3 3 3 3 3 2 2 3 3
12 10 11 12 12 11 10 10 9 9 8 8 7 7 7 7 7 6 5 4 4 3 3 3 3 3 4 4 4 3 3 4 6 4 3 3 3 3 2 2 2 2 2 3
11 10 10 11 12 11 9 9 9 8 7 7 7 7 7 6 5 4 3 4 5 5 4 3 3 4 5 5 3 3 3 3 3 2 2 3 3 3 3 3 3 3 3 4
12 12 11 11 10 9 9 8 7 6 6 6 7 6 5 4 4 3 4 5 5 4 3 3 5 5 4 6 6 3 4 3 3 3 3 4 4 3 3 3 3 3 3 3
11 11 11 10 9 8 7 6 7 6 5 6 6 5 4 3 3 3 4 3 1 0 0 3 4 4 4 5 7 3 4 4 4 3 3 3 3 3 3 3 3 3 3 3
10 10 9 8 7 7 6 6 6 5 4 4 5 4 3 2 3 3 4 2 2 1 2 4 3 2 3 4 5 3 3 3 3 3 3 3 3 3 3 4 4 4 4 4
7 7 7 6 6 5 4 4 4 4 3 3 3 3 3 3 3 2 2 1 1 1 2 2 1 3 4 5 3 3 3 3 3 3 3 3 3 3 3 4 4 4 4 4
6 6 6 5 5 4 4 4 4 4 4 3 3 2 2 1 2 2 0 1 1 2 2 1 2 4 5 4 3 3 3 3 3 2 2 2 2 3 3 4 4 4 4 4
5 5 4 4 5 6 4 2 3 3 3 3 2 2 2 2 1 0 1 1 2 2 1 1 3 4 4 2 2 2 2 2 2 2 3 3 3 3 3 4 4 4 4 5
4 4 4 5 4 3 2 2 4 4 4 3 3 3 2 2 1 1 1 1 3 3 2 2 4 4 3 2 2 2 2 3 3 3 3 3 3 4 4 4 4 4 5 5
3 2 2 2 2 2 2 2 2 1 2 2 1 2 1 1 1 1 1 2 3 3 2 2 2 3 2 3 3 3 3 3 4 4 4 4 4 4 4 5 6 5 5 5
3 3 3 3 3 2 2 3 2 2 1 1 1 1 1 1 2 2 2 2 2 2 2 2 2 2 3 3 3 3 3 3 4 4 4 4 4 4 5 5 5 5 5 5
Wind_Direction
249 243 221 243 243 204 179 180 176 203 192 215 216 196 186 172 157 132 136 145 162 173 178 175 172 178 182 187 187 186 187 196 202 201 201 199 198 200 197 194 196 194 195 199
309 305 311 288 258 223 197 178 170 159 195 184 153 99 78 102 121 112 115 135 143 151 164 172 176 182 184 186 188 183 189 197 197 192 195 199 202 205 202 202 199 193 197 198
272 300 359 278 258 231 197 180 162 179 188 144 116 107 108 94 84 89 93 116 127 141 165 177 180 180 184 187 182 179 187 192 194 192 197 205 205 202 209 208 200 197 200 195
214 10 233 243 280 122 124 96 130 134 142 139 125 103 76 75 89 78 68 74 77 89 116 127 134 139 140 140 145 151 165 171 173 178 187 191 192 201 207 203 197 200 204 203
158 207 252 272 311 123 121 56 124 133 134 130 118 86 55 40 71 81 75 70 63 66 80 79 84 99 100 97 107 119 129 150 163 158 161 179 202 207 204 196 199 204 201 206
163 191 223 238 274 204 109 79 200 144 147 147 129 106 103 71 75 74 71 67 64 59 63 64 62 79 84 81 81 84 94 119 125 131 149 177 206 210 197 185 197 198 202 207
178 205 252 264 289 40 140 192 170 144 142 133 111 117 122 105 86 78 76 71 70 69 64 57 63 80 81 74 69 70 78 80 82 94 127 162 184 191 165 160 165 190 203 214
171 190 240 304 351 170 177 133 127 119 113 104 104 106 103 96 87 81 78 70 69 72 64 50 55 77 78 68 52 54 62 64 60 57 55 62 78 81 118 146 156 184 187 200
191 214 283 16 67 103 118 114 115 121 118 116 110 106 101 95 90 84 81 75 70 74 68 53 46 60 69 51 52 62 60 57 56 54 49 52 67 62 49 85 149 166 144 138
122 38 45 49 65 82 100 105 110 117 119 115 110 108 102 98 93 85 79 76 74 74 70 56 45 50 51 41 51 63 59 46 42 48 40 35 47 61 76 73 90 96 111 133
125 116 55 49 71 91 93 97 101 102 104 109 109 105 103 98 92 89 84 77 76 78 75 63 51 47 42 43 52 56 52 44 39 38 41 37 31 33 54 65 148 144 165 169
198 191 123 105 95 101 98 100 109 107 100 97 104 106 102 96 92 90 86 80 76 73 73 64 58 50 38 41 52 55 45 36 34 30 29 35 34 18 17 19 24 101 182 184
126 100 98 103 90 101 104 107 108 107 109 105 99 102 101 96 90 89 86 83 83 80 75 69 60 46 30 35 46 47 42 31 28 27 25 19 19 25 355 349 358 346 293 261
110 104 94 94 98 100 104 104 100 96 97 101 100 98 97 95 91 90 90 94 93 84 73 65 58 39 18 32 42 38 32 23 21 11 10 15 19 9 359 345 338 334 321 301
84 99 108 105 100 98 100 101 99 97 97 94 96 100 101 99 95 92 89 90 84 75 64 58 50 23 13 35 40 32 25 12 9 6 7 8 10 16 10 3 355 332 334 337
98 96 98 98 99 99 101 103 103 103 103 101 98 95 96 94 88 79 77 86 88 77 58 57 46 15 21 34 31 16 359 2 17 11 0 0 6 13 14 7 6 3 352 336
104 102 103 101 99 98 98 101 104 105 102 100 99 96 90 84 75 69 63 66 80 77 70 69 46 24 28 30 28 11 0 355 9 15 8 8 10 9 7 11 10 2 341 342
99 104 109 111 110 106 101 99 99 98 100 102 100 93 89 89 88 80 68 62 59 50 37 43 54 46 29 19 18 8 7 6 13 18 19 22 16 12 12 10 4 358 340 346
95 97 96 95 98 99 98 98 96 94 94 97 97 94 92 91 89 84 75 68 64 51 7 21 49 49 25 10 18 14 16 18 16 16 20 20 21 18 15 6 358 350 345 348
89 91 91 89 88 94 98 97 95 90 92 96 92 84 73 68 80 87 83 68 51 140 49 51 49 33 16 10 24 24 24 25 25 20 19 16 12 8 7 5 2 355 349 347
94 93 92 91 88 89 94 97 97 96 96 99 102 105 98 82 86 96 91 66 336 25 74 59 51 27 11 11 22 29 32 33 28 21 17 11 10 12 7 2 357 350 345 342
92 93 95 95 93 88 89 97 104 106 101 97 101 105 98 85 83 84 98 167 209 106 81 54 43 32 29 30 31 33 32 29 24 20 17 13 14 9 0 353 347 342 339 336
91 94 95 94 95 90 76 78 86 95 104 111 114 120 128 141 138 131 188 257 175 115 96 58 41 42 42 43 38 31 27 26 23 17 12 10 4 353 344 340 335 334 334 335
87 85 88 89 85 80 73 59 68 80 88 82 82 95 107 93 49 21 186 173 140 116 86 61 53 52 57 59 44 33 28 26 19 10 10 4 353 347 341 336 334 336 336 337
89 85 85 85 86 91 94 74 62 58 62 61 56 54 68 106 140 178 119 103 106 102 85 61 57 59 59 51 46 41 31 30 30 21 10 360 353 351 349 346 347 345 343 342
96 97 93 99 110 109 93 87 81 70 74 66 35 18 22 49 86 92 92 91 95 97 86 60 49 48 49 49 50 46 37 27 25 22 14 12 8 6 2 0 358 358 354 353
67 72 74 59 45 65 80 85 89 82 81 93 48 343 6 55 72 76 85 85 80 79 75 66 56 54 54 55 52 43 37 33 29 25 22 21 17 12 7 5 2 359 358 359